Location: Waldport
(44.4270°N, 124.0680°W)
Time: 03:00:52
(UTC-08:00)

Cosmos 1461 - Pass Details

Date: 23 June 2018
Orbit: 508 x 661 km, 65.0° (Epoch: 17 November)

Event Time Altitude Azimuth Distance (km) Brightness Sun altitude
Exits shadow 21:48:26 - 172° (S) 2,702 5.9 -6.9°
Reaches altitude 10° 21:50:39 10° 157° (SSE) 1,999 5.1 -7.2°
Maximum altitude 21:53:57 20° 110° (ESE) 1,477 4.5 -7.6°
Drops below altitude 10° 21:57:21 10° 64° (ENE) 2,061 5.5 -8.1°
Sets 22:00:10 0° 48° (NE) 2,991 6.5 -8.4°
